THOR ABLESTAR DEB, 3592

Orbit data source: Space-Track

THOR ABLESTAR DEB, 3592 is space debris in LEO originally from a launch on Thu, 24 Jun 1965 UTC launched from the Air Force Western Test Range (AFWTR). Debris objects in space refer to the collection of defunct objects orbiting the Earth. Examples of debris include non-operational satellites, rocket bodies, and fragments generated from explosions, collisions, or faulty payload assembly.

Loading next visibility...
Identifier
3592, 1965-048F
Orbit
LEO
Country
Flag of USUS
Related business
Manufacturer
Unknown
Mission
Spacecraft
Bus & Motor
Unknown
Mass
Unknown
Launch date (UTC)
1965-06-24 (60 years ago)
Launch vehicle
Unknown
Launch site
Air Force Western Test Range (AFWTR)
Object type
Payload
Rocket body
Debris
Shape & HBR
Unknown
Radar Cross Section
Small (<0.1 m²)

Expand to show TLE details & history
Last TLE update: 16 hours ago

TLE from 16 hours ago
0 THOR ABLESTAR DEB
1 03592U 65048F   25257.57999537  .00000209  00000-0  25261-3 0  9997
2 03592  89.8783 291.2442 0062689  56.6645  68.7155 13.62532056982432
Epoch: 2025-09-14T13:55Z
TLE epoch observation values (Epoch: 2025-09-14T13:55:11.599Z)
Latitude
54.04365°
Longitude
-91.518°
Altitude
1,018.871 km
Speed
7.356 km/s
True Right ascension
07h 24m 18s
True Declination
53° 53' 09"
Sunlit
Object was in daylight at epoch
Visualization orbit readout
Latitude
Unknown
Longitude
Unknown
Altitude
Unknown
Speed
Unknown
Apparent Right ascension
Unknown
Apparent Declination
Unknown
Sunlit
N/A
Visualization observer readout
Local Sidereal Time
22:03:13
Azimuth
Unknown
Elevation
Unknown
Doppler factor
Unknown
Orbital elements
Apogee altitude
1,069.936 km
Perigee altitude
977.135 km
Semi-major axis
7,401.673 km
Eccentricity
0.00627
Inclination
89.8783°
RAAN
291.2442°
Arg. of periapsis
56.6645°
True anomaly
69.38676°
Mean anomaly
68.7155°
Eccentric anomaly
69.05094°
Mean motion
3.40838 °/min
Orbital period
105.62 mins
BSTAR
0.00025261
Loading maneuver chart data...
Computing Atmospheric mass density...

Documentation

Showing up to 5 results
|